Regional Weather Roundup
Issued by NWS

Home | Current Version | Previous Version | Graphics & Text | Print | Product List | Glossary On
Versions: 1 2 3 4 5 6 7 8 9 10 11 12 13 14 15 16 17 18 19 20 21 22 23 24 25 26 27
000
ASUS45 KBOI 281510
RWRID

IDAHO REGIONAL WEATHER ROUNDUP
NATIONAL WEATHER SERVICE BOISE ID
900 AM MDT FRI APR 28 2017

NOTE: "FAIR" INDICATES FEW OR NO CLOUDS BELOW 12000 FEET
WITH NO SIGNIFICANT WEATHER AND/OR OBSTRUCTIONS TO VISIBILITY

IDZ012-014-281600-
SOUTHWEST IDAHO


CITY           SKY/WX    TMP DP  RH WIND       PRES   REMARKS
BOISE          SUNNY     41  32  70 NW16      30.06R
CALDWELL       SUNNY     44  33  65 W16       30.11R
MOUNTAIN HOME  SUNNY     42  35  78 NW25G35   30.02R
$$

IDZ016-017-281600-
SOUTHCENTRAL IDAHO


CITY           SKY/WX    TMP DP  RH WIND       PRES   REMARKS
BURLEY         CLOUDY    33  28  81 W15G23    29.96R WCI  23
JEROME         CLOUDY    32  31  96 SW9       29.98R WCI  24
TWIN FALLS     CLOUDY    35  31  85 W22G29    29.98R WCI  23
$$

IDZ019>023-281600-
SOUTHEAST IDAHO


CITY           SKY/WX    TMP DP  RH WIND       PRES   REMARKS
IDAHO FALLS    CLOUDY    34  29  82 NW14      29.91R WCI  25
POCATELLO      CLOUDY    34  31  88 SW14      29.94S WCI  25
REXBURG        CLOUDY    37  25  61 N7        29.88R WCI  32
$$

IDZ006-010-011-018-031-032-281600-
CENTRAL IDAHO MOUNTAINS


CITY           SKY/WX    TMP DP  RH WIND       PRES   REMARKS
MCCALL         PTSUNNY   32  24  72 W7        30.03R WCI  26
HAILEY         MOSUNNY   37  12  35 NW7       29.94R WCI  32
STANLEY          N/A     26  21  81 CALM      29.99R
SALMON         CLOUDY    34  27  75 N3        30.03R
CHALLIS        CLOUDY    38  21  50 N5        30.00R WCI  34
$$

IDZ002-004-006-007-026-281600-
NORTHERN IDAHO


CITY           SKY/WX    TMP DP  RH WIND       PRES   REMARKS
LEWISTON       CLOUDY    47  36  65 E3        30.15R
LOWELL           N/A     40  37  89 CALM      30.18R
COEUR D`ALENE  CLOUDY    40  34  79 S10       30.11R WCI  33
MULLAN PASS    FOG       29  28  96 CALM      30.01R VSB<1/4
$$




USA.gov is the U.S. government's official web portal to all federal, state and local government web resources and services.